Theta_e
309 309 309 309 309 309 310 310 311 311 311 312 311 312 314 315 315 310 305 312 317 326 324 313 312 315 322 315 309 311 301 300 304 306 306 311 309 312 316 312 312 316 317 324 334
308 308 308 309 309 310 310 310 309 310 310 311 311 311 312 314 308 304 319 322 324 325 313 309 306 310 314 313 306 304 300 302 309 310 310 310 309 311 309 309 309 314 321 333 332
307 307 307 308 308 309 309 309 309 309 309 310 310 311 310 311 300 304 318 319 320 322 316 313 308 309 311 309 308 304 300 307 309 310 312 312 311 311 309 306 309 311 320 329 328
307 307 307 307 307 308 309 309 309 309 309 309 309 310 310 305 287 310 319 319 321 320 316 308 305 304 307 307 310 300 304 305 306 306 308 308 314 309 309 309 314 315 323 328 325
308 308 307 307 307 307 308 308 308 308 308 309 309 309 304 295 296 310 318 317 312 314 311 305 302 301 301 308 310 302 302 305 308 306 304 308 309 309 309 311 315 318 324 327 325
309 309 307 307 307 307 307 308 308 308 308 308 308 309 299 289 303 306 307 310 307 308 308 308 302 304 300 305 307 310 308 309 309 306 305 304 305 308 310 313 314 321 321 325 325
309 309 307 307 306 306 307 307 307 308 308 308 308 304 296 293 303 304 307 306 307 307 305 309 307 301 300 299 309 304 300 302 306 306 304 304 300 302 312 313 312 313 320 323 325
308 308 308 307 306 306 306 306 306 307 307 307 308 302 291 302 304 303 303 302 307 310 309 310 310 302 297 302 304 302 299 296 304 306 306 302 294 304 310 311 310 312 314 319 323
308 308 308 307 307 306 306 306 306 307 307 307 302 298 289 305 298 301 302 299 303 305 309 310 308 298 296 291 293 298 292 295 299 306 305 303 294 303 307 309 310 310 312 316 319
308 308 307 308 306 306 305 305 306 306 304 303 300 291 294 291 299 302 304 301 299 301 300 303 301 292 291 289 284 288 292 295 296 302 304 301 297 302 304 304 308 309 311 312 316
307 307 307 307 306 305 302 299 294 294 296 290 290 291 292 297 301 298 302 301 300 297 291 298 292 288 288 291 292 293 292 292 299 304 302 300 301 302 304 301 299 300 305 311 314
307 307 307 306 305 303 301 293 293 295 285 292 293 293 295 296 289 293 299 294 294 289 292 291 287 293 295 293 292 290 289 290 295 299 302 300 298 301 303 304 302 301 301 303 310
306 307 306 305 303 301 296 294 301 299 285 288 292 292 292 294 288 290 294 293 290 288 289 286 291 296 294 291 289 290 288 289 290 292 292 290 290 296 301 304 305 303 303 303 303
307 306 305 303 297 297 295 299 300 300 278 283 286 291 294 294 287 295 296 292 289 286 289 288 293 293 291 290 291 286 292 292 291 289 284 291 285 292 297 300 304 305 301 303 303
306 305 304 301 296 293 296 300 301 295 266 284 287 297 293 288 290 291 297 293 286 287 289 288 289 289 289 290 292 287 293 291 292 288 286 286 283 287 295 295 298 303 299 300 302
305 305 303 298 300 299 301 301 296 276 268 276 286 285 285 287 288 291 291 295 293 287 288 286 291 291 292 294 292 293 289 289 290 287 279 284 284 285 290 294 295 301 298 297 295
306 305 302 300 294 301 301 294 277 271 280 274 276 283 283 282 283 286 285 285 282 278 278 285 286 291 291 290 292 289 285 276 277 278 276 286 284 287 294 292 292 293 293 295 297
306 303 301 300 302 301 296 283 270 273 274 283 282 282 279 282 282 284 283 281 286 284 282 280 276 287 292 290 287 286 285 278 270 274 276 284 280 284 295 297 294 294 294 296 298
304 300 299 299 301 299 287 275 273 276 281 279 281 277 275 282 281 281 281 280 284 284 279 280 282 291 293 293 292 286 283 288 280 277 277 279 284 288 291 291 292 293 296 296 298
299 297 295 301 301 294 281 277 275 283 283 282 275 279 272 275 276 279 280 282 282 285 286 282 278 287 291 294 293 289 290 282 280 268 268 277 278 280 285 287 291 293 294 296 297
297 289 296 302 299 286 277 275 276 284 285 281 278 276 277 277 277 278 278 281 284 284 286 285 283 282 287 287 285 286 284 285 283 279 274 273 276 285 287 289 291 292 294 295 296
294 282 298 300 284 282 278 277 283 283 284 282 282 281 278 279 275 278 278 281 287 286 282 285 282 278 282 287 291 290 286 286 279 276 278 279 276 288 291 292 292 292 293 294 296
286 286 298 295 279 279 278 279 282 281 282 281 280 283 283 279 274 279 281 286 287 286 283 285 280 274 279 284 288 286 288 288 286 282 277 274 276 288 291 289 292 291 292 293 294
289 283 285 287 283 279 275 277 277 285 282 283 281 282 280 278 281 279 280 285 288 287 288 288 281 278 273 277 281 282 286 288 285 276 279 279 280 284 287 288 290 290 292 293 293
290 281 281 279 280 279 277 280 278 278 281 284 281 280 278 271 277 277 280 282 285 286 287 284 276 279 280 281 282 281 282 284 284 283 278 282 282 284 287 288 289 290 291 291 291
286 282 281 277 279 279 278 277 278 279 280 277 278 280 279 273 278 276 279 279 279 283 283 285 277 279 275 280 281 280 282 283 284 284 284 284 285 290 288 288 287 289 290 288 289
290 289 287 281 278 276 278 277 278 280 282 283 282 280 279 281 284 284 284 283 282 280 280 281 278 274 271 277 278 273 278 281 283 285 286 281 286 290 287 288 288 289 288 288 288
Wind_Speed
14 14 15 16 16 15 15 16 15 14 15 16 17 18 20 21 21 11 10 9 6 11 13 15 10 5 8 3 4 4 3 6 12 11 8 6 5 2 7 7 3 4 7 4 18
11 13 14 14 16 17 16 16 15 15 15 16 17 18 18 21 17 12 12 9 11 13 9 9 7 7 4 3 3 4 4 9 10 10 7 5 5 8 2 3 4 7 7 18 11
9 10 12 14 15 17 18 16 15 14 14 15 16 17 17 19 9 2 9 12 11 11 10 7 4 3 2 3 4 5 5 9 12 11 12 11 10 4 7 6 7 11 12 15 12
8 8 9 11 13 15 16 17 16 14 14 14 15 16 19 9 4 4 9 14 14 7 8 6 4 3 3 6 4 5 9 11 8 13 6 10 12 9 7 7 3 13 18 16 15
9 9 8 9 10 13 16 16 16 15 14 15 14 14 10 5 12 10 9 9 14 5 6 9 8 5 6 4 4 3 7 8 7 13 13 7 9 10 9 3 4 3 18 17 15
9 10 9 10 10 11 13 15 16 17 15 13 13 12 10 13 10 16 14 7 10 12 7 7 5 8 7 5 8 7 12 11 9 10 16 8 10 8 6 7 5 11 10 12 15
11 11 6 9 11 13 13 15 16 17 16 14 12 9 12 17 11 14 14 9 10 10 9 8 7 9 3 3 7 4 4 7 12 8 10 10 9 9 8 9 6 6 9 10 13
11 11 8 9 10 14 16 17 17 18 18 15 11 9 9 12 10 13 13 15 11 10 9 10 9 7 6 3 3 8 2 10 9 13 8 6 10 8 10 9 6 10 8 9 11
11 12 12 11 11 13 16 20 22 18 16 11 8 9 10 6 9 11 12 14 10 12 9 10 5 5 7 9 6 10 9 12 11 18 12 9 5 9 12 9 9 8 10 9 9
11 11 12 9 10 14 19 22 21 11 7 5 5 5 8 6 9 12 10 13 13 8 10 11 6 8 9 13 20 8 10 8 16 11 17 17 10 13 14 9 8 8 8 9 10
11 12 10 6 8 12 12 8 5 2 5 8 11 10 14 9 5 11 10 11 11 6 12 13 10 17 17 17 11 8 12 15 11 13 14 19 15 13 14 8 5 6 9 7 9
12 11 8 6 7 10 7 6 4 4 12 14 15 16 17 15 18 15 15 9 15 14 12 10 22 14 12 14 16 18 15 10 5 5 13 10 15 12 13 20 6 8 9 9 4
13 11 8 5 5 4 4 4 3 4 5 9 7 7 8 8 17 19 14 13 15 17 17 20 9 19 18 17 18 18 19 9 7 5 4 3 9 12 11 18 19 11 7 7 6
11 10 4 1 3 2 2 6 5 2 3 4 0 1 5 5 9 15 18 15 8 14 10 17 21 19 21 19 17 20 12 7 10 8 4 3 7 11 16 17 20 20 8 7 8
9 4 4 0 4 2 5 5 1 2 3 3 4 4 7 7 11 7 11 13 11 12 5 3 13 19 18 20 15 9 7 12 7 6 5 6 3 5 7 12 17 20 9 8 8
3 8 6 2 1 5 5 2 2 1 3 4 4 7 10 9 7 6 5 11 6 12 12 10 11 8 20 17 11 4 5 8 6 5 5 10 7 4 7 13 7 13 9 6 9
8 10 2 2 3 4 4 1 3 3 2 5 3 6 12 8 13 8 11 5 8 4 8 6 8 9 5 21 13 12 11 3 4 6 8 18 9 10 5 6 10 9 9 9 7
11 9 4 6 4 3 2 1 4 2 1 6 8 15 4 8 8 11 5 10 6 4 3 4 7 12 7 11 14 20 17 6 7 8 4 14 10 8 21 13 10 9 8 10 9
13 2 2 3 3 1 2 3 2 3 6 9 15 3 5 4 4 7 5 5 4 3 5 3 7 4 12 12 21 18 20 10 4 1 5 7 6 2 7 8 10 12 11 9 8
3 2 3 2 2 1 0 1 3 4 7 6 4 5 5 7 7 8 2 3 3 2 4 6 8 2 8 11 20 19 19 15 1 5 3 7 5 5 9 11 13 13 12 9 8
1 3 2 1 2 1 2 3 4 4 5 5 6 6 6 7 7 6 8 2 3 4 2 4 5 2 5 5 14 13 15 10 5 4 5 5 4 4 10 15 16 10 8 7 7
2 2 2 3 2 1 2 2 4 5 2 3 5 8 8 9 4 5 5 5 6 4 1 2 4 4 7 3 11 18 15 25 10 6 2 3 2 11 17 17 14 9 7 7 8
2 0 1 3 2 1 0 3 4 3 5 2 3 6 8 7 5 4 5 6 6 5 3 2 2 5 0 3 4 4 9 17 4 3 5 6 4 2 12 11 9 9 7 6 8
2 1 2 3 2 1 3 2 4 2 2 4 4 4 6 6 7 2 7 8 7 8 3 2 0 2 1 3 3 6 9 6 11 4 3 3 11 7 8 8 8 8 7 7 8
2 1 0 1 2 1 1 2 4 3 3 4 4 4 3 3 6 6 8 8 5 14 5 3 1 1 1 1 1 2 7 4 4 4 6 3 12 9 8 8 6 8 8 9 9
3 3 2 3 2 2 3 2 3 4 2 4 2 8 5 5 1 5 7 6 3 9 8 7 1 2 1 1 3 2 5 7 6 4 5 4 7 10 7 5 8 8 9 8 8
1 1 2 4 3 1 2 3 3 4 5 5 6 8 7 5 6 5 1 6 9 6 5 6 4 4 2 5 4 4 2 2 2 2 2 2 10 10 6 7 7 8 8 7 7
Wind_Direction
11 7 3 358 360 2 359 358 358 1 352 348 345 340 339 338 327 317 297 261 301 328 338 310 299 1 286 257 269 304 275 239 248 259 275 89 148 70 343 110 101 112 62 116 123
5 359 354 354 352 350 353 351 353 350 350 347 344 341 337 332 317 302 22 1 323 298 294 302 318 351 292 237 231 214 231 248 265 269 310 329 179 147 136 212 169 123 88 109 120
351 348 344 342 343 344 342 345 344 347 345 345 343 341 333 323 300 91 15 5 340 312 227 267 280 298 230 305 204 217 234 268 275 30 7 339 324 256 170 219 182 178 144 137 138
335 334 333 335 334 338 338 338 342 345 343 340 340 339 330 300 274 107 50 10 334 308 202 191 214 203 237 212 250 268 248 274 330 347 9 325 325 297 176 246 264 172 151 147 153
312 317 321 327 329 332 335 334 335 336 337 335 337 336 337 290 253 266 13 5 335 343 235 212 210 216 207 216 214 222 249 259 320 336 310 303 297 283 286 198 327 97 147 154 160
316 297 305 319 321 327 333 332 328 326 327 328 326 329 305 276 266 294 300 331 337 331 310 246 258 241 278 211 206 169 240 268 305 315 304 275 275 269 275 265 131 132 151 157 171
342 326 278 303 315 326 329 327 321 316 314 317 314 303 287 259 295 302 305 306 301 292 293 293 266 271 277 264 211 147 188 298 257 254 282 310 271 250 242 295 202 189 165 174 177
341 331 297 307 318 324 324 321 312 305 303 301 302 289 262 263 262 269 260 266 266 268 263 283 298 289 252 266 140 194 201 226 214 230 256 289 270 268 219 241 251 175 204 190 185
340 340 317 304 317 322 321 316 303 295 290 288 266 237 277 294 242 262 263 264 261 272 287 238 233 233 201 231 183 204 214 223 227 216 218 234 280 255 265 228 204 220 205 190 187
339 336 330 300 315 323 324 309 289 294 253 222 256 295 246 262 342 318 295 246 234 239 273 225 233 204 221 199 207 165 221 219 214 196 206 231 248 281 289 293 191 242 235 201 183
335 335 331 302 318 330 329 317 17 172 2 299 302 246 288 305 272 293 283 264 228 220 227 204 210 211 208 223 249 244 210 212 198 216 188 220 240 251 293 297 287 277 276 233 193
324 324 315 297 322 331 297 12 47 333 296 286 267 266 270 275 281 271 277 242 228 213 214 249 224 219 227 227 222 242 254 224 173 43 177 208 242 258 270 281 246 240 257 286 249
314 319 307 288 321 280 31 44 329 330 282 297 272 295 301 249 251 259 265 251 250 231 218 223 242 208 227 224 226 228 233 237 175 122 23 359 254 222 237 254 274 279 263 300 308
315 307 300 225 270 6 46 15 341 288 305 292 134 97 306 291 261 248 235 246 222 249 256 240 236 250 214 227 220 232 222 246 144 137 178 112 264 220 228 224 238 264 227 238 264
304 299 146 307 347 356 1 344 93 238 291 339 322 336 304 256 303 334 199 234 219 237 238 212 210 231 227 223 220 247 195 219 149 137 123 170 222 235 263 224 222 226 228 223 227
232 143 155 174 233 47 7 335 226 241 247 325 308 323 321 319 258 271 292 225 238 237 234 259 299 295 238 222 204 220 272 179 164 98 252 190 184 207 196 215 216 212 161 94 50
166 147 201 34 30 0 357 298 255 244 334 309 281 296 308 300 314 251 215 218 212 197 230 237 247 241 294 204 188 199 192 134 165 186 229 171 186 236 250 72 90 77 70 68 64
143 133 55 51 345 357 297 255 253 203 331 304 316 308 298 346 334 333 242 229 204 323 282 249 221 188 215 217 196 202 199 165 172 192 160 152 219 246 227 256 98 91 90 76 66
131 113 143 39 340 358 306 257 3 354 349 329 316 13 317 18 315 326 248 296 47 99 307 199 236 157 191 204 209 194 214 213 131 79 118 188 239 210 145 117 100 100 89 86 86
134 194 66 302 334 348 121 336 298 334 338 330 296 351 323 336 340 340 293 6 16 130 123 300 284 341 217 214 234 192 199 213 263 134 199 192 193 208 164 136 120 113 110 105 101
114 65 79 337 266 44 336 352 305 279 319 319 339 317 325 339 321 321 6 33 342 311 107 283 260 137 1 218 192 196 200 205 183 192 162 132 230 304 148 137 123 110 106 113 99
86 64 53 303 305 23 337 353 322 298 146 292 294 277 316 331 314 337 331 343 329 308 51 341 303 291 215 206 285 224 209 195 187 230 232 127 345 337 110 113 109 115 120 112 106
94 159 93 298 315 56 141 266 258 300 333 354 296 355 312 302 316 329 334 331 15 6 2 334 53 327 294 79 255 205 263 192 191 144 190 126 182 55 106 87 86 91 113 91 79
111 98 341 47 140 328 2 2 299 229 263 277 251 270 333 316 343 322 347 356 16 3 327 300 80 192 84 321 329 327 226 299 200 110 144 155 135 142 122 118 100 89 102 90 81
7 105 39 64 106 6 295 289 294 309 218 277 302 324 106 312 319 6 359 347 322 1 339 28 130 76 30 86 232 270 359 59 266 182 133 155 149 150 104 98 108 105 96 84 75
144 156 202 138 153 254 169 227 296 307 282 297 281 319 324 179 284 311 343 9 354 336 354 337 59 16 90 360 270 329 75 16 57 27 70 79 94 94 112 110 85 80 85 84 82
97 29 273 150 178 219 188 273 290 348 261 267 310 318 315 22 325 297 249 297 288 309 327 348 340 346 73 345 307 29 315 142 118 212 127 164 130 151 127 106 92 102 98 97 92